Weather History for Avalon, VC

Change the Weather History Date:

Monday, January 6, 2014

  Actual Average (YMML) Record (YMML)
Temperature  
Mean Temperature 58 °F -  
Max Temperature 66 °F 78 °F 95 °F (2002)
Min Temperature 51 °F 55 °F 48 °F (2003)
Degree Days  
Heating Degree Days 6    
Growing Degree Days 8 (Base 50)    
Moisture  
Dew Point 44 °F    
Average Humidity 59    
Maximum Humidity 82    
Minimum Humidity 26    
Precipitation  
Precipitation 0.00 in - - ()
Sea Level Pressure  
Sea Level Pressure 29.99 in    
Wind  
Wind Speed 17 mph ()    
Max Wind Speed 26 mph    
Max Gust Speed 36 mph    
Visibility 6.2 miles    
Events      
Averages and records for this station are not official NWS values.
T = Trace of Precipitation, MM = Missing Value Source: Averaged Metar Reports

Daily Weather History Graph

Daily Weather History Graph

Search for Another Location

Airport:

Trip Planner

Search our weather history database for the weather conditions in past years. The results will help you decide how hot, cold, wet, or windy it might be!

Date:

Astronomy

Jan. 06, 2014 Rise Set
Actual Time 6:06 AM AEDT 8:48 PM AEDT
Civil Twilight 5:35 AM AEDT 9:19 PM AEDT
Nautical Twilight 4:57 AM AEDT 9:58 PM AEDT
Astronomical Twilight 4:13 AM AEDT 10:41 PM AEDT
Moon 11:30 AM AEDT (1/6) 11:53 PM AEDT (1/6)
Length of Visible Light 15h 43m
Length of Day
14h 41m
Waxing Crescent, 28% of the Moon is Illuminated
Jan 6
Waxing Crescent
Jan 8
First Quarter
Jan 16
Full
Jan 24
Last Quarter
Jan 31
New

Hourly Weather History & Observations

Time (AEDT) Temp. Dew Point Humidity Pressure Visibility Wind Dir Wind Speed Gust Speed Precip Events Conditions
12:00 AM 57 °F 47 °F 59% 29.78 in - WNW 21.9 mph - -  
12:00 AM 57.2 °F 46.4 °F 67% 29.77 in 6.2 mi WNW 21.9 mph - N/A   Scattered Clouds
12:30 AM 55.4 °F 46.4 °F 72% 29.80 in 6.2 mi WNW 21.9 mph - N/A   Unknown
1:00 AM 55.4 °F 46.4 °F 72% 29.80 in 6.2 mi West 21.9 mph - N/A   Mostly Cloudy
1:08 AM 55.4 °F 48.2 °F 77% 29.80 in 6.2 mi West 20.7 mph 32.2 mph N/A   Scattered Clouds
1:30 AM 55.4 °F 48.2 °F 77% 29.80 in 6.2 mi West 18.4 mph - N/A   Unknown
2:00 AM 53.6 °F 46.4 °F 77% 29.80 in 6.2 mi WNW 17.3 mph - N/A   Unknown
2:30 AM 55.4 °F 46.4 °F 72% 29.80 in 6.2 mi WNW 20.7 mph - N/A   Mostly Cloudy
3:00 AM 55 °F 47 °F 68% 29.83 in - WNW 19.6 mph - -  
3:00 AM 55.4 °F 48.2 °F 77% 29.80 in 6.2 mi WNW 19.6 mph - N/A   Mostly Cloudy
3:30 AM 53.6 °F 46.4 °F 77% 29.80 in 6.2 mi WNW 15.0 mph - N/A   Mostly Cloudy
4:00 AM 51.8 °F 46.4 °F 82% 29.83 in 6.2 mi WNW 17.3 mph - N/A   Scattered Clouds
4:30 AM 51.8 °F 46.4 °F 82% 29.83 in 6.2 mi WNW 15.0 mph - N/A   Unknown
5:00 AM 51.8 °F 46.4 °F 82% 29.86 in 6.2 mi WNW 15.0 mph - N/A   Scattered Clouds
5:30 AM 53.6 °F 46.4 °F 77% 29.86 in 6.2 mi WNW 16.1 mph - N/A   Mostly Cloudy
6:00 AM 52 °F 46 °F 71% 29.89 in - West 11.5 mph - -  
6:00 AM 51.8 °F 46.4 °F 82% 29.89 in 6.2 mi West 11.5 mph - N/A   Scattered Clouds
6:30 AM 51.8 °F 46.4 °F 82% 29.89 in 6.2 mi WNW 11.5 mph - N/A   Overcast
7:00 AM 51.8 °F 44.6 °F 76% 29.92 in 6.2 mi WNW 12.7 mph - N/A   Mostly Cloudy
7:30 AM 53.6 °F 44.6 °F 72% 29.92 in 6.2 mi WNW 13.8 mph - N/A   Mostly Cloudy
8:00 AM 55.4 °F 46.4 °F 72% 29.95 in 6.2 mi West 16.1 mph - N/A   Mostly Cloudy
8:30 AM 57.2 °F 44.6 °F 63% 29.95 in - West 16.1 mph - N/A   Overcast
9:00 AM 59 °F 43 °F 45% 29.98 in - West 19.6 mph - -  
9:00 AM 59.0 °F 42.8 °F 55% 29.98 in - West 19.6 mph - N/A   Scattered Clouds
9:30 AM 59.0 °F 41.0 °F 51% 29.98 in - WSW 20.7 mph - N/A   Overcast
10:00 AM 59.0 °F 41.0 °F 51% 29.98 in - WSW 21.9 mph - N/A   Overcast
10:08 AM 59.0 °F 41.0 °F 51% 29.98 in - West 21.9 mph 33.4 mph N/A   Overcast
10:30 AM 60.8 °F 41.0 °F 48% 30.01 in - WSW 23.0 mph 35.7 mph N/A   Overcast
11:00 AM 60.8 °F 42.8 °F 52% 30.01 in - SW 18.4 mph 31.1 mph N/A   Overcast
11:30 AM 59.0 °F 41.0 °F 51% 30.04 in - WSW 26.5 mph - N/A   Overcast
11:51 AM 64.4 °F 41.0 °F 42% 30.04 in - WSW 20.7 mph 33.4 mph N/A   Overcast
12:00 PM 62 °F 39 °F 31% 30.04 in - WSW 24.2 mph - -  
12:00 PM 62.6 °F 39.2 °F 42% 30.04 in - WSW 24.2 mph - N/A   Overcast
1:00 PM 62.6 °F 39.2 °F 42% 30.04 in - WSW 19.6 mph - N/A   Overcast
2:00 PM 64.4 °F 39.2 °F 40% 30.04 in - WSW 19.6 mph - N/A   Mostly Cloudy
3:00 PM 66 °F 39 °F 26% 30.07 in - WSW 17.3 mph - -   Overcast
3:00 PM 66.2 °F 39.2 °F 37% 30.06 in 6.2 mi WSW 17.3 mph - N/A   Overcast
4:00 PM 64.4 °F 42.8 °F 45% 30.09 in 6.2 mi SW 20.7 mph - N/A   Overcast
4:30 PM 64.4 °F 37.4 °F 37% 30.09 in 6.2 mi WSW 20.7 mph - N/A   Overcast
5:00 PM 64.4 °F 39.2 °F 40% 30.09 in 6.2 mi SW 19.6 mph - N/A   Overcast
5:30 PM 62.6 °F 42.8 °F 48% 30.12 in 6.2 mi SW 19.6 mph - N/A   Overcast
6:00 PM 61 °F 44 °F 42% 30.13 in - SSW 19.6 mph - -   Overcast
6:00 PM 60.8 °F 44.6 °F 55% 30.12 in 6.2 mi SSW 19.6 mph - N/A   Overcast
6:30 PM 60.8 °F 41.0 °F 48% 30.12 in 6.2 mi SSW 18.4 mph - N/A   Overcast
7:00 PM 60.8 °F 42.8 °F 52% 30.15 in 6.2 mi SSW 19.6 mph - N/A   Overcast
7:30 PM 59.0 °F 41.0 °F 51% 30.15 in 6.2 mi SSW 19.6 mph - N/A   Overcast
8:00 PM 59.0 °F 44.6 °F 59% 30.18 in 6.2 mi SSW 17.3 mph - N/A   Overcast
8:30 PM 59.0 °F 42.8 °F 55% 30.18 in 6.2 mi SSW 16.1 mph - N/A   Overcast
9:00 PM 58 °F 43 °F 47% 30.20 in - SSW 19.6 mph - -   Overcast
9:00 PM 57.2 °F 42.8 °F 59% 30.18 in 6.2 mi SSW 19.6 mph - N/A   Overcast
9:30 PM 57.2 °F 42.8 °F 59% 30.18 in 6.2 mi SSW 17.3 mph - N/A   Overcast
10:00 PM 57.2 °F 42.8 °F 59% 30.18 in 6.2 mi SW 16.1 mph - N/A   Overcast
10:30 PM 57.2 °F 42.8 °F 59% 30.18 in 6.2 mi SW 16.1 mph - N/A   Overcast
11:00 PM 57.2 °F 44.6 °F 63% 30.21 in 6.2 mi SW 12.7 mph - N/A   Overcast
11:30 PM 57.2 °F 42.8 °F 59% 30.21 in 6.2 mi WSW 13.8 mph - N/A   Overcast